Weather reports worldwide

Advertisment
Pershore, United Kingdom (3529): temperature & dewpoint: 23.06.2017 10:00:00 - 29.06.2017 10:00:00 (BST)Pershore, United Kingdom (3529): temperature -20cm & temperature -100cm: 23.06.2017 10:00:00 - 29.06.2017 10:00:00 (BST)Pershore, United Kingdom (3529): wind speed & gusts: 23.06.2017 10:00:00 - 29.06.2017 10:00:00 (BST)Pershore, United Kingdom (3529): wind direction: 23.06.2017 10:00:00 - 29.06.2017 10:00:00 (BST)Pershore, United Kingdom (3529): reduced air pressure: 23.06.2017 10:00:00 - 29.06.2017 10:00:00 (BST)Pershore, United Kingdom (3529): visibility: 23.06.2017 10:00:00 - 29.06.2017 10:00:00 (BST)Pershore, United Kingdom (3529): precipitation: 23.06.2017 10:00:00 - 29.06.2017 10:00:00 (BST)
Date & Time tt [°C] td [°C] tt -20cm [°C] tt -100cm [°C] ff [km/h] ff [kn] fx [km/h] fx [kn] dd ppp [hPa] vv [km] rr [mm]
29.06.2017 10:00:00 - - - - - - - - - - - -
29.06.2017 09:00:00 12,4 11,4 - - 9 5 - - WNW 995,4 5 0,0
29.06.2017 08:00:00 11,7 10,7 - - 9 5 - - WNW 995,5 35 0,0
29.06.2017 07:00:00 11,2 10,2 - - 8 4 - - WNW 995,5 13 0,0
29.06.2017 06:00:00 11,0 9,5 - - 9 5 - - NW 995,6 40 0,0
29.06.2017 05:00:00 10,9 8,9 - - 11 6 - - WNW 995,7 30 0,0
29.06.2017 04:00:00 10,9 8,9 - - 11 6 - - NW 996,1 27 0,0
29.06.2017 03:00:00 10,8 9,0 - - 11 6 - - NW 996,4 21 0,0
29.06.2017 02:00:00 11,1 8,8 - - 8 4 - - NW 997,0 35 0,0
29.06.2017 01:00:00 11,4 9,2 - - 13 7 - - NW 997,4 40 0,0
29.06.2017 00:00:00 12,1 10,2 - - 9 5 - - NW 997,8 28 0,0
28.06.2017 23:00:00 12,3 10,0 - - 5 3 - - NNW 998,2 40 0,0
28.06.2017 22:00:00 12,6 10,5 - - 9 5 - - NNW 998,3 45 0,0
28.06.2017 21:00:00 13,1 10,1 - - 11 6 - - N 998,6 50 0,0
28.06.2017 20:00:00 13,8 10,6 - - 11 6 - - N 998,5 45 0,0
28.06.2017 19:00:00 14,3 10,8 - - 9 5 - - N 998,6 40 0,0
28.06.2017 18:00:00 14,5 11,1 - - 11 6 - - N 998,6 40 0,0
28.06.2017 17:00:00 14,6 11,0 - - 13 7 - - N 998,7 30 0,0
28.06.2017 16:00:00 14,8 11,4 - - 11 6 - - NNE 999,1 30 0,0
28.06.2017 15:00:00 14,9 11,9 - - 11 6 - - NNE 999,2 35 0,0
28.06.2017 14:00:00 14,7 11,9 - - 11 6 - - NNE 999,4 45 0,0
28.06.2017 13:00:00 14,9 12,7 - - 11 6 - - NE 999,5 40 0,0
28.06.2017 12:00:00 14,3 13,0 - - 11 6 - - NE 999,6 26 0,4
28.06.2017 11:00:00 14,2 12,9 - - 11 6 - - NNE 999,7 5 0,0
28.06.2017 10:00:00 14,9 13,0 19,4 16,4 13 7 - - NE 999,5 50 0,0
28.06.2017 09:00:00 15,1 13,7 - - 8 4 - - NE 999,5 50 0,0
28.06.2017 08:00:00 14,6 13,7 - - 9 5 - - NE 999,6 16 0,0
28.06.2017 07:00:00 14,1 13,5 - - 8 4 - - NE 999,8 8 0,0
28.06.2017 06:00:00 13,8 13,2 - - 8 4 - - NE 1000,0 7 0,4
28.06.2017 05:00:00 13,6 13,0 - - 5 3 - - NE 1000,3 7 0,2
28.06.2017 04:00:00 13,7 13,1 - - 5 3 - - NNE 1000,6 7 1,2
28.06.2017 03:00:00 13,9 13,3 - - 4 2 - - N 1001,2 4,7 1,6
28.06.2017 02:00:00 14,2 13,6 - - 5 3 - - NNE 1001,8 4,0 1,6
28.06.2017 01:00:00 14,5 13,6 - - 9 5 - - ENE 1002,5 4,2 0,8
28.06.2017 00:00:00 15,2 13,3 - - 11 6 - - E 1002,8 9 0,0
27.06.2017 23:00:00 15,7 13,4 - - 9 5 - - E 1003,1 13 0,0
27.06.2017 22:00:00 16,5 13,7 - - 11 6 - - E 1003,3 16 0,0
27.06.2017 21:00:00 17,3 14,0 - - 9 5 - - E 1003,4 18 0,0
27.06.2017 20:00:00 18,4 14,2 - - 9 5 - - ENE 1003,7 28 0,0
27.06.2017 19:00:00 19,0 14,1 - - 11 6 - - E 1003,9 22 0,0
27.06.2017 18:00:00 19,4 14,1 - - 13 7 - - E 1004,3 28 0,0
27.06.2017 17:00:00 19,5 13,1 - - 13 7 - - E 1004,8 30 0,0
27.06.2017 16:00:00 19,3 12,3 - - 13 7 - - E 1005,4 30 0,0
27.06.2017 15:00:00 20,6 12,3 - - 11 6 - - E 1005,6 30 0,0
27.06.2017 14:00:00 19,4 12,2 - - 11 6 - - E 1006,0 30 0,0
27.06.2017 13:00:00 19,8 12,6 - - 13 7 - - ENE 1006,7 28 0,0
27.06.2017 12:00:00 18,0 11,8 - - 9 5 - - ENE 1007,4 40 0,0
27.06.2017 11:00:00 16,5 10,9 - - 11 6 - - E 1007,9 45 0,0
27.06.2017 10:00:00 15,6 10,2 19,7 16,4 8 4 - - ENE 1008,6 45 0,0
27.06.2017 09:00:00 15,8 10,6 - - 8 4 - - ENE 1008,8 45 0,0
27.06.2017 08:00:00 15,1 10,4 - - 8 4 - - E 1009,0 30 0,0
27.06.2017 07:00:00 14,6 9,9 - - 11 6 - - ESE 1009,2 40 0,0
27.06.2017 06:00:00 14,4 10,3 - - 9 5 - - E 1009,8 40 0,0
27.06.2017 05:00:00 14,8 9,8 - - 11 6 - - E 1010,1 40 0,0
27.06.2017 04:00:00 15,9 9,4 - - 18 10 - - ESE 1010,3 45 0,0
27.06.2017 03:00:00 16,1 9,7 - - 18 10 - - ESE 1010,6 45 0,0
27.06.2017 02:00:00 16,6 9,8 - - 18 10 - - E 1010,7 50 0,0
27.06.2017 01:00:00 17,0 9,3 - - 13 7 - - E 1011,1 50 0,0
27.06.2017 00:00:00 17,3 9,4 - - 11 6 - - E 1011,7 45 0,0
26.06.2017 23:00:00 17,7 9,3 - - 11 6 - - E 1012,2 45 0,0
26.06.2017 22:00:00 18,2 9,5 - - 11 6 - - E 1012,2 45 0,0
26.06.2017 21:00:00 18,8 9,6 - - 8 4 - - E 1012,2 45 0,0
26.06.2017 20:00:00 19,4 9,4 - - 9 5 - - E 1012,5 40 0,0
26.06.2017 19:00:00 20,3 9,8 - - 8 4 - - E 1012,8 40 0,0
26.06.2017 18:00:00 20,8 9,4 - - 5 3 - - N 1013,0 40 0,0
26.06.2017 17:00:00 20,7 9,3 - - 5 3 - - E 1013,5 29 0,0
26.06.2017 16:00:00 19,9 8,6 - - 9 5 - - ESE 1014,1 40 0,0
26.06.2017 15:00:00 20,6 8,2 - - 4 2 - - S 1014,3 30 0,0
26.06.2017 14:00:00 21,6 9,0 - - 8 4 - - ENE 1014,5 15 0,0
26.06.2017 13:00:00 19,2 8,5 - - 8 4 - - S 1015,2 30 0,0
26.06.2017 12:00:00 18,8 8,9 - - 5 3 - - E 1015,1 23 0,0
26.06.2017 11:00:00 17,5 8,6 - - 8 4 - - S 1015,4 24 0,0
26.06.2017 10:00:00 17,0 9,4 19,2 16,4 8 4 - - SSE 1015,6 40 0,0
26.06.2017 09:00:00 16,7 9,1 - - 4 2 - - E 1015,7 30 0,0
26.06.2017 08:00:00 15,0 10,3 - - 4 2 - - E 1015,8 26 0,0
26.06.2017 07:00:00 12,6 11,4 - - 2 1 - - WNW 1015,7 30 0,0
26.06.2017 06:00:00 11,2 10,7 - - 2 1 - - SSW 1015,4 27 0,0
26.06.2017 05:00:00 10,1 9,5 - - 2 1 - - E 1015,4 35 0,0
26.06.2017 04:00:00 9,2 8,6 - - 2 1 - - NE 1015,3 27 0,0
26.06.2017 03:00:00 9,2 8,2 - - 2 1 - - E 1015,6 22 0,0
26.06.2017 02:00:00 10,0 8,7 - - 4 2 - - NNE 1015,5 28 0,0
26.06.2017 01:00:00 11,6 9,7 - - 4 2 - - SW 1015,3 45 0,0
26.06.2017 00:00:00 12,7 10,3 - - 2 1 - - NNE 1015,2 45 0,0
25.06.2017 23:00:00 13,8 10,4 - - 4 2 - - NNW 1015,1 45 0,0
25.06.2017 22:00:00 14,7 10,8 - - 4 2 - - NNW 1014,8 45 0,0
25.06.2017 21:00:00 15,4 11,2 - - 8 4 - - N 1013,9 40 0,0
25.06.2017 20:00:00 16,0 11,8 - - 9 5 - - NNW 1013,4 50 0,0
25.06.2017 19:00:00 17,1 12,0 - - 13 7 - - NNW 1013,1 40 0,0
25.06.2017 18:00:00 19,1 11,9 - - 16 9 - - WNW 1012,2 35 0,0
25.06.2017 17:00:00 20,5 13,0 - - 18 10 - - WSW 1011,8 17 0,0
25.06.2017 16:00:00 19,6 12,4 - - 15 8 - - W 1011,6 35 0,0
25.06.2017 15:00:00 20,1 12,8 - - 16 9 - - W 1011,4 30 0,0
25.06.2017 14:00:00 19,5 13,4 - - 16 9 - - W 1011,3 35 0,0
25.06.2017 13:00:00 19,4 13,7 - - 13 7 - - W 1011,2 50 0,0
25.06.2017 12:00:00 19,2 13,6 - - 16 9 - - SW 1011,3 45 0,0
25.06.2017 11:00:00 19,0 13,8 - - 21 11 - - SW 1011,5 30 0,0
25.06.2017 10:00:00 17,0 12,4 19,7 16,2 18 10 - - SSW 1011,8 40 0,0
25.06.2017 09:00:00 16,9 12,1 - - 15 8 - - SW 1012,0 28 0,0
25.06.2017 08:00:00 15,8 12,6 - - 9 5 - - SSW 1012,2 21 0,0
25.06.2017 07:00:00 15,0 12,1 - - 11 6 - - SW 1012,1 21 0,0
25.06.2017 06:00:00 14,7 12,6 - - 11 6 - - SW 1011,9 13 0,0
25.06.2017 05:00:00 14,8 12,2 - - 13 7 - - SW 1011,7 24 0,0
25.06.2017 04:00:00 14,6 12,2 - - 13 7 - - SSW 1011,9 27 0,0
25.06.2017 03:00:00 14,5 12,2 - - 15 8 - - SSW 1012,0 28 0,0
25.06.2017 02:00:00 14,1 12,0 - - 15 8 - - SW 1012,1 23 0,0
25.06.2017 01:00:00 14,5 11,9 - - 11 6 - - SSW 1012,5 50 0,0
25.06.2017 00:00:00 14,3 12,0 - - 13 7 - - SW 1012,6 45 0,0
24.06.2017 23:00:00 15,2 12,2 - - 15 8 - - WSW 1012,7 45 0,0
24.06.2017 22:00:00 16,4 12,5 - - 13 7 - - WSW 1012,4 45 0,0
24.06.2017 21:00:00 18,4 12,7 - - 11 6 - - WSW 1011,8 40 0,0
24.06.2017 20:00:00 19,2 13,2 - - 13 7 - - W 1011,7 50 0,0
24.06.2017 19:00:00 19,9 13,2 - - 15 8 - - W 1011,8 35 0,0
24.06.2017 18:00:00 20,7 13,6 - - 15 8 - - W 1011,7 35 0,0
24.06.2017 17:00:00 21,5 13,9 - - 16 9 - - WSW 1011,8 30 0,0
24.06.2017 16:00:00 21,3 13,8 - - 15 8 - - W 1012,2 30 0,0
24.06.2017 15:00:00 22,9 14,3 - - 13 7 - - WSW 1012,2 35 0,0
24.06.2017 14:00:00 21,6 13,3 - - 15 8 - - SW 1012,6 40 0,0
24.06.2017 13:00:00 22,6 14,2 - - 16 9 - - SW 1013,0 30 0,0
24.06.2017 12:00:00 20,3 13,7 - - 15 8 - - SSW 1013,1 40 0,0
24.06.2017 11:00:00 19,9 13,6 - - 13 7 - - SW 1013,5 40 0,0
24.06.2017 10:00:00 19,5 13,4 19,7 16,0 11 6 - - W 1013,6 30 0,0
24.06.2017 09:00:00 17,9 13,5 - - 8 4 - - WSW 1013,9 35 0,0
24.06.2017 08:00:00 17,9 13,6 - - 11 6 - - WSW 1013,9 40 0,0
24.06.2017 07:00:00 17,3 14,0 - - 15 8 - - SSW 1013,6 40 0,0
24.06.2017 06:00:00 16,6 13,5 - - 5 3 - - WSW 1013,7 40 0,0
24.06.2017 05:00:00 16,7 14,1 - - 11 6 - - WSW 1013,7 50 0,0
24.06.2017 04:00:00 16,8 14,2 - - 15 8 - - SW 1013,7 40 0,0
24.06.2017 03:00:00 16,8 14,3 - - 13 7 - - SW 1014,0 40 0,0
24.06.2017 02:00:00 16,8 14,1 - - 15 8 - - SSW 1014,0 45 0,0
24.06.2017 01:00:00 16,7 13,9 - - 15 8 - - SSW 1014,5 50 0,0
24.06.2017 00:00:00 16,6 13,8 - - 21 11 - - SSW 1014,7 50 0,0
23.06.2017 23:00:00 16,6 13,6 - - 21 11 - - SSW 1014,9 40 0,0
23.06.2017 22:00:00 16,8 13,4 - - 22 12 - - SSW 1015,2 40 0,0
23.06.2017 21:00:00 17,3 13,4 - - 22 12 - - SSW 1015,1 50 0,0
23.06.2017 20:00:00 18,0 13,4 - - 21 11 - - SW 1015,1 40 0,0
23.06.2017 19:00:00 18,5 13,4 - - 18 10 - - SW 1015,0 45 0,0
23.06.2017 18:00:00 18,8 13,3 - - 24 13 50 27 SW 1015,3 30 0,0
23.06.2017 17:00:00 18,7 13,4 - - 21 11 - - SW 1015,4 25 0,0
23.06.2017 16:00:00 18,5 13,4 - - 24 13 - - SW 1015,6 27 0,0
23.06.2017 15:00:00 17,9 14,0 - - 28 15 - - SW 1015,7 9 0,0
23.06.2017 14:00:00 18,7 13,1 - - 26 14 - - SW 1015,4 30 0,0
23.06.2017 13:00:00 18,8 12,7 - - 22 12 - - SW 1015,7 27 0,0
23.06.2017 12:00:00 18,1 12,7 - - 24 13 - - SW 1015,6 30 0,0
23.06.2017 11:00:00 18,7 12,6 - - 21 11 - - WSW 1015,5 29 0,0
23.06.2017 10:00:00 17,6 12,3 20,7 15,9 21 11 - - WSW 1015,7 24 0,0

tt = temperature
td = dewpoint
tt -20cm = temperature -20cm
tt -100cm = temperature -100cm
ff = wind speed
fx = gusts
dd = wind direction
ppp = reduced air pressure
vv = visibility
rr = precipitation

Next stations